ALK115 VCBI-VRMM

Flight info

Callsign ALK115
Flight time 1h 7m
Altitude 36000
Route LALUM1D TELIG M512 HOKEY HOKEY1A
Aircraft A20N/M-SDE2E3FGHIRWXY/LB1

Departure

Time 2026-05-09 01:56
Airport Bandaranaike International Colombo Airport (VCBI)

Arrival

Time 2026-05-09 03:04
Airport Velana International Airport (VRMM)
Time Latitude Longitude Altitude Speed Heading
2026-05-09 01:41 7.17614 79.88567 26 ft 0 kts 217°
2026-05-09 01:47 7.17657 79.88600 27 ft 10 kts 217°
2026-05-09 01:47 7.17688 79.88628 27 ft 5 kts 248°
2026-05-09 01:47 7.17689 79.88659 27 ft 5 kts 299°
2026-05-09 01:48 7.17686 79.88665 27 ft 0 kts 308°
2026-05-09 01:50 7.17697 79.88650 27 ft 7 kts 307°
2026-05-09 01:51 7.17742 79.88589 27 ft 14 kts 306°
2026-05-09 01:51 7.17798 79.88516 27 ft 13 kts 307°
2026-05-09 01:51 7.17856 79.88444 27 ft 13 kts 317°
2026-05-09 01:51 7.17922 79.88454 27 ft 10 kts 31°
2026-05-09 01:52 7.17978 79.88496 27 ft 11 kts 37°
2026-05-09 01:52 7.18042 79.88544 27 ft 12 kts 37°
2026-05-09 01:52 7.18115 79.88599 27 ft 14 kts 36°
2026-05-09 01:52 7.18200 79.88665 27 ft 16 kts 38°
2026-05-09 01:53 7.18296 79.88738 27 ft 18 kts 36°
2026-05-09 01:53 7.18403 79.88822 27 ft 20 kts 38°
2026-05-09 01:53 7.18520 79.88910 27 ft 22 kts 37°
2026-05-09 01:53 7.18644 79.89005 27 ft 22 kts 38°
2026-05-09 01:54 7.18768 79.89100 27 ft 23 kts 37°
2026-05-09 01:54 7.18898 79.89199 27 ft 24 kts 37°
2026-05-09 01:54 7.19032 79.89302 27 ft 24 kts 36°
2026-05-09 01:54 7.19146 79.89391 27 ft 16 kts 34°
2026-05-09 01:55 7.19232 79.89378 26 ft 10 kts 312°
2026-05-09 01:55 7.19276 79.89325 26 ft 5 kts 307°
2026-05-09 01:55 7.19297 79.89285 26 ft 9 kts 267°
2026-05-09 01:55 7.19187 79.89192 27 ft 50 kts 219°
2026-05-09 01:56 7.18723 79.88839 29 ft 114 kts 217°
2026-05-09 01:56 7.17968 79.88263 42 ft 159 kts 217°
2026-05-09 01:56 7.17097 79.87606 614 ft 157 kts 216°
2026-05-09 01:56 7.16205 79.86923 1167 ft 160 kts 217°
2026-05-09 01:57 7.15325 79.86229 1708 ft 169 kts 217°
2026-05-09 01:57 7.14366 79.85471 2115 ft 184 kts 217°
2026-05-09 01:57 7.13291 79.84648 2477 ft 205 kts 217°
2026-05-09 01:57 7.12075 79.83723 2874 ft 231 kts 217°
2026-05-09 01:58 7.10729 79.82698 3465 ft 254 kts 217°
2026-05-09 01:58 7.09276 79.81587 4188 ft 268 kts 217°
2026-05-09 01:58 7.07772 79.80435 5117 ft 275 kts 217°
2026-05-09 01:58 7.06239 79.79258 6077 ft 279 kts 217°
2026-05-09 01:59 7.04681 79.78059 6980 ft 284 kts 217°
2026-05-09 01:59 7.03098 79.76842 7868 ft 288 kts 217°
2026-05-09 01:59 7.02017 79.76010 8484 ft 291 kts 216°
2026-05-09 01:59 7.00398 79.74766 9378 ft 295 kts 216°
2026-05-09 02:00 6.98754 79.73504 10212 ft 299 kts 216°
2026-05-09 02:00 6.97069 79.72212 10633 ft 320 kts 216°
2026-05-09 02:00 6.95231 79.70804 10895 ft 344 kts 216°
2026-05-09 02:00 6.93297 79.69321 11457 ft 353 kts 217°
2026-05-09 02:01 6.91334 79.67816 12242 ft 357 kts 217°
2026-05-09 02:01 6.89347 79.66292 12999 ft 361 kts 217°
2026-05-09 02:01 6.87396 79.64683 13718 ft 366 kts 226°
2026-05-09 02:01 6.85780 79.62691 14390 ft 369 kts 234°
2026-05-09 02:02 6.84301 79.60571 15057 ft 372 kts 234°
2026-05-09 02:02 6.82796 79.58433 15719 ft 376 kts 233°
2026-05-09 02:02 6.81235 79.56312 16374 ft 379 kts 232°
2026-05-09 02:02 6.79622 79.54198 17018 ft 382 kts 231°
2026-05-09 02:03 6.77975 79.52085 17651 ft 386 kts 231°
2026-05-09 02:03 6.76305 79.49959 18241 ft 389 kts 231°
2026-05-09 02:03 6.74614 79.47814 18753 ft 393 kts 231°
2026-05-09 02:03 6.72905 79.45647 19261 ft 397 kts 231°
2026-05-09 02:04 6.71181 79.43458 19760 ft 401 kts 231°
2026-05-09 02:04 6.69437 79.41244 20253 ft 406 kts 231°
2026-05-09 02:04 6.67680 79.39012 20748 ft 409 kts 231°
2026-05-09 02:04 6.65904 79.36756 21241 ft 413 kts 231°
2026-05-09 02:05 6.64111 79.34479 21736 ft 417 kts 231°
2026-05-09 02:05 6.62303 79.32183 22229 ft 420 kts 231°
2026-05-09 02:05 6.60481 79.29870 22708 ft 424 kts 231°
2026-05-09 02:05 6.58639 79.27532 23189 ft 428 kts 231°
2026-05-09 02:06 6.56784 79.25177 23615 ft 431 kts 231°
2026-05-09 02:06 6.54917 79.22807 24023 ft 434 kts 231°
2026-05-09 02:06 6.53037 79.20421 24410 ft 437 kts 231°
2026-05-09 02:07 6.49238 79.15601 25193 ft 443 kts 231°
2026-05-09 02:07 6.47319 79.13167 25564 ft 446 kts 231°
2026-05-09 02:07 6.45386 79.10716 25931 ft 449 kts 231°
2026-05-09 02:07 6.43443 79.08253 26281 ft 452 kts 230°
2026-05-09 02:08 6.41485 79.05770 26642 ft 454 kts 230°
2026-05-09 02:08 6.39516 79.03275 26990 ft 457 kts 230°
2026-05-09 02:08 6.37532 79.00760 27320 ft 460 kts 230°
2026-05-09 02:08 6.35541 78.98237 27660 ft 462 kts 230°
2026-05-09 02:09 6.33537 78.95697 27980 ft 465 kts 230°
2026-05-09 02:09 6.31519 78.93141 28299 ft 468 kts 230°
2026-05-09 02:09 6.29533 78.90545 28597 ft 471 kts 234°
2026-05-09 02:09 6.27808 78.87732 28904 ft 474 kts 241°
2026-05-09 02:10 6.26378 78.84737 29193 ft 477 kts 244°
2026-05-09 02:10 6.24989 78.81697 29474 ft 480 kts 244°
2026-05-09 02:10 6.23584 78.78641 29766 ft 482 kts 244°
2026-05-09 02:10 6.22170 78.75575 30030 ft 485 kts 244°
2026-05-09 02:11 6.20748 78.72493 30291 ft 487 kts 244°
2026-05-09 02:11 6.19321 78.69401 30566 ft 489 kts 244°
2026-05-09 02:11 6.17887 78.66293 30833 ft 491 kts 244°
2026-05-09 02:11 6.16450 78.63181 31162 ft 491 kts 244°
2026-05-09 02:12 6.15005 78.60072 31526 ft 490 kts 242°
2026-05-09 02:12 6.13332 78.57097 31896 ft 489 kts 236°
2026-05-09 02:12 6.11351 78.54331 32249 ft 487 kts 230°
2026-05-09 02:12 6.09231 78.51683 32595 ft 486 kts 230°
2026-05-09 02:13 6.07119 78.49028 32950 ft 486 kts 230°
2026-05-09 02:13 6.05014 78.46375 33280 ft 485 kts 230°
2026-05-09 02:13 6.02913 78.43726 33615 ft 485 kts 230°
2026-05-09 02:13 6.00812 78.41079 33931 ft 484 kts 230°
2026-05-09 02:14 5.98714 78.38434 34225 ft 483 kts 230°
2026-05-09 02:14 5.96624 78.35801 34524 ft 482 kts 230°
2026-05-09 02:14 5.94533 78.33169 34823 ft 481 kts 230°
2026-05-09 02:14 5.92451 78.30548 35109 ft 480 kts 230°
2026-05-09 02:15 5.90371 78.27931 35395 ft 479 kts 230°
2026-05-09 02:15 5.88295 78.25317 35694 ft 478 kts 230°
2026-05-09 02:15 5.86224 78.22710 35820 ft 477 kts 230°
2026-05-09 02:16 5.82090 78.17511 35842 ft 476 kts 230°
2026-05-09 02:16 5.77981 78.12343 35841 ft 477 kts 230°
2026-05-09 02:17 5.73842 78.07138 35843 ft 477 kts 230°
2026-05-09 02:17 5.69866 78.01800 35845 ft 479 kts 237°
2026-05-09 02:18 5.66931 77.95790 35849 ft 482 kts 249°
2026-05-09 02:18 5.64939 77.89362 35848 ft 483 kts 252°
2026-05-09 02:19 5.62975 77.82911 35855 ft 483 kts 252°
2026-05-09 02:19 5.61007 77.76454 35855 ft 484 kts 252°
2026-05-09 02:20 5.59040 77.69991 35859 ft 484 kts 252°
2026-05-09 02:20 5.57071 77.63525 35860 ft 484 kts 252°
2026-05-09 02:21 5.55100 77.57055 35863 ft 485 kts 252°
2026-05-09 02:21 5.53130 77.50591 35863 ft 485 kts 252°
2026-05-09 02:22 5.51158 77.44124 35861 ft 484 kts 252°
2026-05-09 02:22 5.49186 77.37662 35858 ft 484 kts 252°
2026-05-09 02:23 5.47215 77.31206 35856 ft 484 kts 252°
2026-05-09 02:23 5.45247 77.24756 35852 ft 483 kts 252°
2026-05-09 02:24 5.43279 77.18312 35855 ft 482 kts 252°
2026-05-09 02:24 5.41313 77.11877 35850 ft 482 kts 252°
2026-05-09 02:25 5.39348 77.05450 35841 ft 482 kts 252°
2026-05-09 02:25 5.37385 76.99028 35850 ft 481 kts 252°
2026-05-09 02:26 5.35421 76.92610 35849 ft 481 kts 252°
2026-05-09 02:26 5.33459 76.86200 35843 ft 481 kts 252°
2026-05-09 02:27 5.31496 76.79787 35850 ft 480 kts 252°
2026-05-09 02:27 5.29534 76.73384 35853 ft 480 kts 252°
2026-05-09 02:28 5.27586 76.67027 35847 ft 480 kts 252°
2026-05-09 02:28 5.25624 76.60626 35848 ft 480 kts 252°
2026-05-09 02:29 5.23664 76.54232 35847 ft 480 kts 252°
2026-05-09 02:29 5.21703 76.47840 35855 ft 479 kts 252°
2026-05-09 02:30 5.19740 76.41445 35848 ft 479 kts 252°
2026-05-09 02:30 5.17778 76.35055 35854 ft 479 kts 252°
2026-05-09 02:31 5.15816 76.28667 35850 ft 479 kts 252°
2026-05-09 02:31 5.13853 76.22277 35853 ft 479 kts 252°
2026-05-09 02:32 5.11891 76.15893 35863 ft 479 kts 252°
2026-05-09 02:32 5.09929 76.09510 35858 ft 479 kts 252°
2026-05-09 02:33 5.07969 76.03126 35867 ft 478 kts 252°
2026-05-09 02:33 5.06013 75.96753 35873 ft 478 kts 252°
2026-05-09 02:34 5.04057 75.90386 35860 ft 478 kts 252°
2026-05-09 02:34 5.02100 75.84019 35864 ft 477 kts 252°
2026-05-09 02:35 5.00148 75.77670 35868 ft 476 kts 252°
2026-05-09 02:35 4.98197 75.71323 35858 ft 476 kts 252°
2026-05-09 02:36 4.96115 75.65081 35860 ft 474 kts 246°
2026-05-09 02:36 4.93080 75.59234 35861 ft 473 kts 239°
2026-05-09 02:37 4.89802 75.53520 35858 ft 473 kts 239°
2026-05-09 02:37 4.86534 75.47799 35855 ft 472 kts 239°
2026-05-09 02:38 4.83264 75.42081 35850 ft 473 kts 239°
2026-05-09 02:38 4.79993 75.36367 35850 ft 473 kts 239°
2026-05-09 02:39 4.76717 75.30643 35852 ft 473 kts 239°
2026-05-09 02:39 4.73437 75.24916 35855 ft 474 kts 239°
2026-05-09 02:40 4.70153 75.19182 35859 ft 475 kts 239°
2026-05-09 02:40 4.66863 75.13439 35861 ft 475 kts 239°
2026-05-09 02:41 4.63569 75.07688 35855 ft 476 kts 239°
2026-05-09 02:41 4.61926 75.04820 35620 ft 473 kts 239°
2026-05-09 02:41 4.60289 75.01964 35117 ft 472 kts 239°
2026-05-09 02:41 4.58652 74.99109 34478 ft 473 kts 239°
2026-05-09 02:42 4.57011 74.96246 33768 ft 474 kts 239°
2026-05-09 02:42 4.55368 74.93381 32969 ft 475 kts 239°
2026-05-09 02:42 4.53720 74.90506 32171 ft 476 kts 239°
2026-05-09 02:42 4.52068 74.87627 31364 ft 478 kts 239°
2026-05-09 02:43 4.50416 74.84746 30385 ft 477 kts 239°
2026-05-09 02:43 4.48759 74.81857 29557 ft 478 kts 239°
2026-05-09 02:43 4.47112 74.78985 28965 ft 472 kts 239°
2026-05-09 02:43 4.45489 74.76153 28348 ft 467 kts 239°
2026-05-09 02:44 4.43876 74.73342 27716 ft 462 kts 239°
2026-05-09 02:44 4.42283 74.70566 27100 ft 458 kts 239°
2026-05-09 02:44 4.40707 74.67820 26515 ft 453 kts 239°
2026-05-09 02:44 4.39138 74.65087 25925 ft 449 kts 240°
2026-05-09 02:45 4.37610 74.62424 25363 ft 445 kts 240°
2026-05-09 02:45 4.36069 74.59743 24827 ft 441 kts 240°
2026-05-09 02:45 4.34545 74.57090 24270 ft 437 kts 240°
2026-05-09 02:45 4.33037 74.54465 23744 ft 433 kts 240°
2026-05-09 02:46 4.31542 74.51861 23184 ft 429 kts 240°
2026-05-09 02:46 4.30062 74.49284 22616 ft 424 kts 240°
2026-05-09 02:46 4.29093 74.47598 22257 ft 420 kts 240°
2026-05-09 02:46 4.27174 74.44257 21780 ft 408 kts 240°
2026-05-09 02:47 4.26237 74.42626 21429 ft 407 kts 240°
2026-05-09 02:47 4.24826 74.40170 20854 ft 405 kts 240°
2026-05-09 02:47 4.23423 74.37728 20227 ft 404 kts 241°
2026-05-09 02:47 4.22030 74.35304 19665 ft 400 kts 241°
2026-05-09 02:48 4.20648 74.32897 19096 ft 397 kts 241°
2026-05-09 02:48 4.19274 74.30507 18514 ft 394 kts 241°
2026-05-09 02:48 4.17911 74.28136 17918 ft 391 kts 241°
2026-05-09 02:48 4.16563 74.25791 17350 ft 386 kts 241°
2026-05-09 02:49 4.15230 74.23473 16785 ft 381 kts 241°
2026-05-09 02:49 4.13921 74.21197 16217 ft 371 kts 241°
2026-05-09 02:49 4.12655 74.18993 15692 ft 359 kts 241°
2026-05-09 02:49 4.11425 74.16856 15170 ft 349 kts 241°
2026-05-09 02:50 4.10229 74.14779 14641 ft 340 kts 242°
2026-05-09 02:50 4.09065 74.12755 14152 ft 335 kts 242°
2026-05-09 02:50 4.07868 74.10669 13804 ft 355 kts 242°
2026-05-09 02:50 4.06635 74.08522 13667 ft 355 kts 242°
2026-05-09 02:51 4.05398 74.06373 13174 ft 358 kts 241°
2026-05-09 02:51 4.04145 74.04196 12331 ft 364 kts 242°
2026-05-09 02:51 4.02879 74.01995 11541 ft 361 kts 242°
2026-05-09 02:51 4.01651 73.99863 11115 ft 346 kts 242°
2026-05-09 02:52 4.00454 73.97784 10620 ft 343 kts 242°
2026-05-09 02:52 3.99269 73.95722 10197 ft 335 kts 242°
2026-05-09 02:52 3.98141 73.93765 10023 ft 314 kts 242°
2026-05-09 02:52 3.97078 73.91918 9693 ft 301 kts 242°
2026-05-09 02:53 3.96044 73.90122 9212 ft 293 kts 242°
2026-05-09 02:53 3.95225 73.88297 9052 ft 289 kts 256°
2026-05-09 02:53 3.94900 73.86311 8928 ft 289 kts 270°
2026-05-09 02:53 3.94912 73.84309 8791 ft 287 kts 272°
2026-05-09 02:54 3.94921 73.82307 8456 ft 287 kts 271°
2026-05-09 02:54 3.94923 73.80325 8086 ft 280 kts 271°
2026-05-09 02:54 3.94922 73.78391 7736 ft 276 kts 271°
2026-05-09 02:54 3.94920 73.76476 7382 ft 274 kts 271°
2026-05-09 02:55 3.94920 73.74581 7035 ft 271 kts 271°
2026-05-09 02:55 3.94920 73.72704 6684 ft 269 kts 271°
2026-05-09 02:55 3.94920 73.70839 6339 ft 267 kts 271°
2026-05-09 02:55 3.94919 73.68989 5984 ft 265 kts 271°
2026-05-09 02:56 3.94919 73.67155 5649 ft 261 kts 271°
2026-05-09 02:56 3.94919 73.65361 5524 ft 256 kts 271°
2026-05-09 02:56 3.94919 73.63544 5490 ft 264 kts 271°
2026-05-09 02:56 3.94916 73.61750 5426 ft 257 kts 271°
2026-05-09 02:57 3.94912 73.59993 5330 ft 242 kts 271°
2026-05-09 02:57 3.94908 73.58360 5181 ft 228 kts 271°
2026-05-09 02:57 3.94904 73.56790 4837 ft 224 kts 271°
2026-05-09 02:57 3.94962 73.55284 4668 ft 208 kts 284°
2026-05-09 02:58 3.95565 73.54061 4609 ft 193 kts 310°
2026-05-09 02:58 3.96601 73.53319 4537 ft 179 kts 336°
2026-05-09 02:58 3.97788 73.53125 4437 ft 170 kts 357°
2026-05-09 02:58 3.98927 73.53144 4351 ft 157 kts 356°
2026-05-09 02:59 3.99997 73.53143 4142 ft 154 kts 355°
2026-05-09 02:59 4.01089 73.53135 3610 ft 162 kts 355°
2026-05-09 02:59 4.02240 73.53124 2917 ft 169 kts 355°
2026-05-09 02:59 4.03419 73.53118 2279 ft 168 kts 355°
2026-05-09 03:00 4.04527 73.53119 2026 ft 148 kts 355°
2026-05-09 03:00 4.05458 73.53126 1988 ft 123 kts 354°
2026-05-09 03:00 4.06373 73.53120 1991 ft 133 kts 354°
2026-05-09 03:00 4.07288 73.53116 2000 ft 133 kts 354°
2026-05-09 03:01 4.08227 73.53115 1995 ft 135 kts 355°
2026-05-09 03:01 4.09160 73.53107 1970 ft 135 kts 353°
2026-05-09 03:01 4.10106 73.53096 1689 ft 135 kts 355°
2026-05-09 03:01 4.11029 73.53106 1408 ft 131 kts 354°
2026-05-09 03:02 4.11928 73.53105 1217 ft 126 kts 354°
2026-05-09 03:02 4.12790 73.53096 1078 ft 125 kts 354°
2026-05-09 03:02 4.13698 73.53080 924 ft 132 kts 356°
2026-05-09 03:02 4.14616 73.53102 745 ft 136 kts 358°
2026-05-09 03:03 4.15561 73.53150 605 ft 133 kts 354°
2026-05-09 03:03 4.16477 73.53154 402 ft 131 kts 352°
2026-05-09 03:03 4.17393 73.53117 238 ft 135 kts 352°
2026-05-09 03:03 4.18334 73.53109 85 ft 133 kts 354°
2026-05-09 03:04 4.19222 73.53106 13 ft 116 kts 355°
2026-05-09 03:04 4.19823 73.53100 12 ft 58 kts 359°
2026-05-09 03:04 4.20115 73.53098 12 ft 35 kts 360°
2026-05-09 03:04 4.20267 73.53101 12 ft 20 kts
2026-05-09 03:05 4.20345 73.53100 2 ft 0 kts 355°
2026-05-09 03:05 4.20346 73.53098 1 ft 1 kts 334°
2026-05-09 03:05 4.20369 73.53031 12 ft 17 kts 267°
2026-05-09 03:05 4.20369 73.52952 12 ft 0 kts 270°
2026-05-09 03:06 4.20369 73.52948 12 ft 1 kts 271°
2026-05-09 03:07 4.20369 73.52940 12 ft 3 kts 271°
2026-05-09 03:07 4.20356 73.52911 12 ft 8 kts 229°
2026-05-09 03:07 4.20285 73.52894 12 ft 13 kts 182°
2026-05-09 03:07 4.20182 73.52897 12 ft 17 kts 177°
2026-05-09 03:08 4.20055 73.52901 12 ft 19 kts 178°
2026-05-09 03:08 4.19914 73.52904 12 ft 21 kts 178°
2026-05-09 03:08 4.19778 73.52905 12 ft 19 kts 179°
2026-05-09 03:08 4.19657 73.52906 12 ft 15 kts 178°
2026-05-09 03:09 4.19542 73.52909 12 ft 19 kts 179°
2026-05-09 03:09 4.19393 73.52911 12 ft 21 kts 180°
2026-05-09 03:09 4.19244 73.52915 14 ft 21 kts 179°
2026-05-09 03:09 4.19140 73.52919 14 ft 14 kts 184°
2026-05-09 03:10 4.19023 73.52918 12 ft 20 kts 177°
2026-05-09 03:10 4.18941 73.52900 12 ft 5 kts 236°
2026-05-09 03:10 4.18935 73.52889 12 ft 3 kts 241°
2026-05-09 03:10 4.18894 73.52854 12 ft 7 kts 188°
2026-05-09 03:11 4.18875 73.52826 12 ft 6 kts 261°
2026-05-09 03:11 4.18872 73.52792 12 ft 0 kts 268°